EW0734 Weather Reports


time (UTC)temp
C
wind
direction
speed
KPH
gust
KPH
rain 1hr
cm
rain 24hr
cm
rain mn
cm
humidity
%
barometer
mb
20260502183045 15 0.0 4.8 0.00 0.00 0.00 47 1011.8
20260502182044 15 270 1.6 6.4 0.00 0.00 0.00 47 1011.9
20260502181024 15 0.0 3.2 0.00 0.00 0.00 45 1012.1
20260502180104 16 270 1.6 4.8 0.00 0.00 0.00 43 1012.2
20260502164024 14 0.0 4.8 0.00 0.00 0.00 47 1012.7
20260502163024 14 0.0 3.2 0.00 0.00 0.00 46 1013.0
20260502162024 14 0.0 4.8 0.00 0.00 0.00 48 1012.9
20260502161025 13 270 1.6 4.8 0.00 0.00 0.00 51 1013.1
20260502152024 13 0.0 1.6 0.00 0.00 0.00 53 1013.1
20260502151024 12 0.0 6.4 0.00 0.00 0.00 55 1013.4
20260502123025 9 270 1.6 8.0 0.00 0.00 0.00 67 1013.0
20260502122026 9 0.0 3.2 0.00 0.00 0.00 70 1013.0
20260502121025 8 270 1.6 6.4 0.00 0.00 0.00 68 1012.9
20260502115025 9 0.0 4.8 0.00 0.00 0.00 70 1012.8
20260502114025 8 0.0 4.8 0.00 0.00 0.00 71 1012.8
20260502113025 8 0.0 4.8 0.00 0.00 0.00 70 1012.9
20260502112026 8 0.0 9.7 0.00 0.00 0.00 71 1012.9
20260502111026 8 0.0 1.6 0.00 0.00 0.00 72 1012.8
20260502110025 9 0.0 1.6 0.00 0.00 0.00 72 1012.8
20260502105029 -17 0.0 0.0 0.00 0.00 0.00
20260502104006 -17 0.0 0.0 0.00 0.00 0.00
20260502103622 -17 0.0 0.0 0.00 0.00 0.00
20260502103027 -17 0.0 0.0 0.00 0.00 0.00
20260502102529 -17 0.0 0.0 0.00 0.00 0.00
20260502101524 -17 0.0 0.0 0.00 0.00 0.00
20260502101222 -17 0.0 0.0 0.00 0.00 0.00
20260502091024 -17 0.0 0.0 0.00 0.00 0.00
20260502071025 9 0.0 1.6 0.00 0.00 0.00 85 1011.0
20260502070026 10 0.0 0.0 0.00 0.00 0.00 85 1010.8
20260502065045 10 0.0 0.0 0.00 0.00 0.00 85 1010.9
20260502064025 10 0.0 0.0 0.00 0.00 0.00 84 1011.1
20260502063045 10 0.0 0.0 0.00 0.00 0.00 83 1011.1
20260502062206 11 0.0 0.0 0.00 0.00 0.00 82 1011.1
20260502061044 11 0.0 0.0 0.00 0.00 0.00 81 1011.3
20260502060025 11 0.0 0.0 0.00 0.00 0.00 80 1011.6
20260502055024 11 0.0 0.0 0.00 0.00 0.00 79 1011.6
20260502054026 12 0.0 0.0 0.00 0.00 0.00 77 1011.4
20260502053045 12 0.0 0.0 0.00 0.00 0.00 76 1011.5
20260502052024 12 0.0 0.0 0.00 0.00 0.00 75 1011.5
20260502051024 12 0.0 3.2 0.00 0.00 0.00 73 1011.3
20260502050024 12 0.0 0.0 0.00 0.00 0.00 72 1011.4
20260502045024 12 0.0 0.0 0.00 0.00 0.00 71 1011.2
20260502044024 11 0.0 1.6 0.00 0.00 0.00 71 1011.2
20260502043025 11 0.0 0.0 0.00 0.00 0.00 73 1011.3
20260502042025 11 0.0 0.0 0.00 0.00 0.00 72 1011.3
20260502041025 11 0.0 0.0 0.00 0.00 0.00 71 1011.3
20260502040030 11 0.0 0.0 0.00 0.00 0.00 72 1011.0
20260502035024 11 0.0 0.0 0.00 0.00 0.00 72 1010.7
20260502034026 11 0.0 0.0 0.00 0.00 0.00 72 1010.3
20260502033025 10 0.0 0.0 0.00 0.00 0.00 72 1010.3
20260502032025 10 0.0 0.0 0.00 0.00 0.00 72 1010.2
20260502031029 10 0.0 0.0 0.00 0.00 0.00 72 1010.0
20260502030024 10 0.0 0.0 0.00 0.00 0.00 71 1009.9
20260502025025 10 0.0 0.0 0.00 0.00 0.00 70 1009.7
20260502024045 11 0.0 0.0 0.00 0.00 0.00 70 1009.8
20260502023026 11 0.0 0.0 0.00 0.00 0.00 70 1009.7
20260502022045 11 0.0 0.0 0.00 0.00 0.00 70 1009.7
20260502021044 11 0.0 0.0 0.00 0.00 0.00 68 1009.8
20260502020024 11 0.0 0.0 0.00 0.00 0.00 67 1009.8
20260502015026 11 0.0 0.0 0.00 0.00 0.00 65 1009.7
20260502014024 11 0.0 0.0 0.00 0.00 0.00 64 1009.7
20260502013026 12 0.0 0.0 0.00 0.00 0.00 65 1009.6
20260502012045 12 0.0 0.0 0.00 0.00 0.00 63 1009.6
20260502011025 12 0.0 0.0 0.00 0.00 0.00 63 1009.4
20260502010105 12 0.0 0.0 0.00 0.00 0.00 61 1009.2
20260502005024 13 0.0 0.0 0.00 0.00 0.00 59 1009.0
20260502004025 13 0.0 0.0 0.00 0.00 0.00 58 1008.7
20260502003025 13 0.0 0.0 0.00 0.00 0.00 56 1008.6
20260502002024 15 0.0 0.0 0.00 0.00 0.00 56 1008.5
20260502001025 15 0.0 0.0 0.00 0.00 0.00 52 1008.6
20260502000024 16 0.0 0.0 0.00 0.00 0.00 49 1008.6
20260501235031 17 0.0 1.6 0.00 0.00 0.00 47 1008.5
20260501234025 17 0.0 1.6 0.00 0.00 0.00 45 1008.5
20260501233024 18 0.0 4.8 0.00 0.00 0.00 42 1008.5
20260501232024 18 0.0 4.8 0.00 0.00 0.00 42 1008.4
20260501231024 18 0.0 4.8 0.00 0.00 0.00 41 1008.5
20260501230024 18 0.0 3.2 0.00 0.00 0.00 40 1008.5
20260501225024 18 0.0 4.8 0.00 0.00 0.00 39 1008.6
20260501224045 18 135 1.6 6.4 0.00 0.00 0.00 38 1008.7
20260501223024 18 0.0 3.2 0.00 0.00 0.00 39 1008.6
20260501222025 19 135 1.6 9.7 0.00 0.00 0.00 38 1008.7
20260501221024 19 0.0 1.6 0.00 0.00 0.00 37 1008.9
20260501220024 19 135 1.6 6.4 0.00 0.00 0.00 35 1008.9
20260501215025 20 0.0 3.2 0.00 0.00 0.00 36 1008.9
20260501214024 20 135 1.6 6.4 0.00 0.00 0.00 34 1009.0
20260501213025 20 0.0 4.8 0.00 0.00 0.00 38 1009.1
20260501212025 20 180 3.2 11.3 0.00 0.00 0.00 34 1009.1
20260501211025 20 180 3.2 8.0 0.00 0.00 0.00 35 1009.3
20260501210024 20 203 1.6 6.4 0.00 0.00 0.00 36 1009.3
20260501205025 20 203 1.6 6.4 0.00 0.00 0.00 34 1009.3
20260501204104 20 0.0 8.0 0.00 0.00 0.00 36 1009.2
20260501203024 21 203 3.2 9.7 0.00 0.00 0.00 33 1009.3
20260501202029 21 0.0 3.2 0.00 0.00 0.00 36 1009.4
20260501201024 21 0.0 4.8 0.00 0.00 0.00 38 1009.7
20260501200104 21 203 1.6 6.4 0.00 0.00 0.00 32 1009.9
20260501195024 21 203 1.6 6.4 0.00 0.00 0.00 33 1010.0
20260501194024 21 0.0 4.8 0.00 0.00 0.00 35 1010.2
20260501193024 21 203 1.6 6.4 0.00 0.00 0.00 39 1010.5
20260501192025 21 0.0 3.2 0.00 0.00 0.00 37 1010.7
20260501191024 21 0.0 3.2 0.00 0.00 0.00 35 1011.0
20260501190024 21 0.0 3.2 0.00 0.00 0.00 35 1011.0
20260501185044 21 0.0 6.4 0.00 0.00 0.00 37 1011.1
20260501184024 20 0.0 3.2 0.00 0.00 0.00 38 1011.3